Location: Bakhuizen
(52.8696°N, 5.4575°E)
Time: 22:39:28
(UTC+00:00)

Cosmos 773 Rocket - Pass Details

Date: 28 September 2021
Orbit: 745 x 777 km, 74.1° (Epoch: 19 October)

Event Time Altitude Azimuth Distance (km) Brightness Sun altitude
Rises 18:25:08 0° 330° (NNW) 3,248 7.9 -10.3°
Reaches altitude 10° 18:27:35 10° 324° (NW) 2,322 7.2 -10.7°
Maximum altitude 18:32:34 44° 254° (WSW) 1,066 5.3 -11.4°
Drops below altitude 10° 18:37:32 10° 184° (S) 2,320 6.4 -12.2°
Sets 18:40:00 0° 178° (S) 3,245 7.1 -12.5°
